This demonstration page uses our WeatherBlox Daily Observations layout. Learn more.

Left ArrowRight Arrow

Hourly Observations for September 20, 2020

Temp ( °F °C ) Dew Point ( °F °C ) Humidity (%) Winds ( mph kmh ) Pressure ( in mb ) Visibility ( mi km ) Precip ( " mm )
12:52 am 00:52 Mostly Cloudy 59 15 50 10 72 72 SSE 14 22 30.15 1021 10 16 0.00 0.00
1:52 am 01:52 Mostly Cloudy 58 14.4 50 10 75 75 SSE 12 19 30.16 1021 10 16 0.00 0.00
2:52 am 02:52 Mostly Cloudy 57 13.9 49 9.4 74 74 SSE 12 19 30.16 1021 10 16 0.00 0.00
3:52 am 03:52 Mostly Cloudy 57 13.9 48 8.9 72 72 SSE 13 20 30.15 1021 10 16 0.00 0.00
4:52 am 04:52 Mostly Cloudy 57 13.9 49 9.4 74 74 SSE 14 22 30.15 1021 10 16 0.00 0.00
5:52 am 05:52 Mostly Cloudy 57 13.9 49 9.4 74 74 SSE 15 24 30.15 1021 10 16 0.00 0.00
6:52 am 06:52 Mostly Cloudy 57 13.9 48 8.9 72 72 SSE 14 22 30.16 1021 10 16 0.00 0.00
7:52 am 07:52 Mostly Cloudy 56 13.3 48 8.9 75 75 SSE 13 20 30.16 1022 10 16 0.00 0.00
8:52 am 08:52 Mostly Cloudy 58 14.4 49 9.4 72 72 SSE 16 26 30.17 1022 10 16 0.00 0.00
9:52 am 09:52 Partly Cloudy 61 16.1 50 10 67 67 SSE 20 31 30.18 1022 10 16 0.00 0.00
10:52 am 10:52 Partly Cloudy 66 18.9 51 10.6 59 59 S 22 35 30.17 1022 10 16 0.00 0.00
11:52 am 11:52 Partly Cloudy 69 20.6 52 11.1 55 55 S 23 37 30.16 1022 10 16 0.00 0.00
12:52 pm 12:52 Mostly Cloudy 72 22.2 54 12.2 53 53 S 20 31 30.14 1021 10 16 0.00 0.00
1:52 pm 13:52 Mostly Cloudy 76 24.4 54 12.2 47 47 SSE 21 33 30.13 1020 10 16 0.00 0.00
2:52 pm 14:52 Mostly Cloudy 78 25.6 54 12.2 43 43 SSE 25 41 30.10 1019 10 16 0.00 0.00
3:52 pm 15:52 Mostly Cloudy 79 26.1 52 11.1 39 39 S 22 35 30.09 1019 10 16 0.00 0.00
4:52 pm 16:52 Mostly Cloudy 79 26.1 51 10.6 38 38 SSE 24 39 30.09 1019 10 16 0.00 0.00
5:52 pm 17:52 Cloudy 76 24.4 51 10.6 42 42 SSE 23 37 30.09 1019 10 16 0.00 0.00
6:52 pm 18:52 Cloudy 73 22.8 53 11.7 50 50 SSE 18 30 30.11 1020 10 16 0.00 0.00
7:52 pm 19:52 Mostly Cloudy 70 21.1 51 10.6 51 51 SSE 18 30 30.12 1020 10 16 0.00 0.00
8:52 pm 20:52 Mostly Cloudy 67 19.4 52 11.1 59 59 SSE 16 26 30.14 1021 10 16 0.00 0.00
9:52 pm 21:52 Mostly Cloudy 66 18.9 51 10.6 59 59 SSE 10 17 30.16 1021 10 16 0.00 0.00
10:52 pm 22:52 Mostly Cloudy 65 18.3 51 10.6 61 61 S 14 22 30.16 1021 10 16 0.00 0.00
11:52 pm 23:52 Mostly Cloudy 63 17.2 51 10.6 65 65 S 10 17 30.17 1022 10 16 0.00 0.00

Powered by AerisWeather